FW8407 Weather Reports


time (UTC)temp
C
wind
direction
speed
KPH
gust
KPH
rain 1hr
cm
rain 24hr
cm
rain mn
cm
humidity
%
barometer
mb
20260507160032 11 354 1.6 19.3 0.00 0.00 0.00 31 1007.6
20260507154534 11 285 9.7 17.7 0.00 0.00 0.00 32 1007.6
20260507153046 10 345 6.4 12.9 0.00 0.00 0.00 39 1007.8
20260507151550 9 288 8.0 16.1 0.00 0.00 0.00 41 1007.9
20260507150052 8 273 4.8 12.9 0.00 0.00 0.00 46 1008.0
20260507144502 8 289 4.8 12.9 0.00 0.00 0.00 50 1008.0
20260507143118 7 270 4.8 9.7 0.00 0.00 0.00 53 1008.0
20260507141605 6 263 4.8 9.7 0.00 0.00 0.00 55 1008.1
20260507140018 5 272 1.6 6.4 0.00 0.00 0.00 62 1008.1
20260507134514 3 243 1.6 4.8 0.00 0.00 0.00 65 1008.2
20260507133028 3 235 3.2 8.0 0.00 0.00 0.00 65 1008.3
20260507131541 1 210 0.0 4.8 0.00 0.00 0.00 70 1008.3
20260507130043 0 90 0.0 1.6 0.00 0.00 0.00 73 1008.1
20260507124601 -1 90 0.0 0.0 0.00 0.00 0.00 75 1007.9
20260507123044 -2 90 0.0 0.0 0.00 0.00 0.00 78 1008.1
20260507121545 -3 90 0.0 0.0 0.00 0.00 0.00 80 1007.9
20260507120059 -4 90 0.0 0.0 0.00 0.00 0.00 83 1007.8
20260507114510 -5 115 0.0 0.0 0.00 0.00 0.00 83 1007.7
20260507113034 -5 112 0.0 0.0 0.00 0.00 0.00 82 1007.8
20260507111518 -5 112 0.0 0.0 0.00 0.00 0.00 82 1007.6
20260507110021 -5 112 0.0 0.0 0.00 0.00 0.00 81 1007.7
20260507104532 -5 112 0.0 0.0 0.00 0.00 0.00 80 1007.6
20260507103039 -5 112 0.0 0.0 0.00 0.00 0.00 80 1007.8
20260507101545 -5 112 0.0 0.0 0.00 0.00 0.00 78 1007.9
20260507100057 -4 112 0.0 0.0 0.00 0.00 0.00 78 1007.8
20260507094607 -4 112 0.0 0.0 0.00 0.00 0.00 79 1007.7
20260507093007 -4 112 0.0 0.0 0.00 0.00 0.00 79 1007.8
20260507091503 -4 112 0.0 0.0 0.00 0.00 0.00 78 1007.8
20260507090014 -4 112 0.0 0.0 0.00 0.00 0.00 77 1007.9
20260507084519 -4 112 0.0 0.0 0.00 0.00 0.00 77 1007.9
20260507083032 -3 112 0.0 0.0 0.00 0.00 0.00 76 1007.7
20260507081540 -3 112 0.0 0.0 0.00 0.00 0.00 76 1007.8
20260507080043 -3 112 0.0 0.0 0.00 0.00 0.00 75 1007.8
20260507074557 -3 112 0.0 0.0 0.00 0.00 0.00 75 1007.8
20260507073045 -3 112 0.0 0.0 0.00 0.00 0.00 74 1007.8
20260507071558 -3 112 0.0 0.0 0.00 0.00 0.00 72 1007.8
20260507070013 -2 112 0.0 0.0 0.00 0.00 0.00 69 1007.9
20260507064512 -1 112 0.0 0.0 0.00 0.00 0.00 69 1008.0
20260507063027 -1 112 0.0 0.0 0.00 0.00 0.00 71 1008.0
20260507061539 0 112 0.0 0.0 0.00 0.00 0.00 68 1007.9
20260507060056 0 112 0.0 3.2 0.00 0.00 0.00 64 1008.0
20260507054551 0 112 1.6 3.2 0.00 0.00 0.00 65 1008.1
20260507053104 0 112 1.6 4.8 0.00 0.00 0.00 64 1008.0
20260507051514 1 112 1.6 4.8 0.00 0.00 0.00 61 1008.2
20260507050029 2 92 1.6 6.4 0.00 0.00 0.00 56 1008.2
20260507044536 2 140 3.2 6.4 0.00 0.00 0.00 56 1008.3
20260507043100 2 137 4.8 9.7 0.00 0.00 0.00 55 1008.4
20260507041507 2 126 3.2 9.7 0.00 0.00 0.00 54 1008.5
20260507040020 2 102 1.6 4.8 0.00 0.00 0.00 53 1008.6
20260507034526 3 107 3.2 6.4 0.00 0.00 0.00 53 1008.6
20260507033024 3 105 3.2 6.4 0.00 0.00 0.00 52 1008.6
20260507031544 3 94 0.0 4.8 0.00 0.00 0.00 51 1008.6
20260507030042 4 98 3.2 6.4 0.00 0.00 0.00 51 1008.5
20260507024550 5 84 1.6 8.0 0.00 0.00 0.00 50 1008.5
20260507023108 5 64 4.8 6.4 0.00 0.00 0.00 47 1008.3
20260507021559 6 60 1.6 4.8 0.00 0.00 0.00 45 1008.4
20260507020105 7 59 1.6 3.2 0.00 0.00 0.00 43 1008.5
20260507014513 8 59 0.0 4.8 0.00 0.00 0.00 42 1008.7
20260507013026 8 56 1.6 3.2 0.00 0.00 0.00 41 1008.7
20260507011545 9 41 0.0 4.8 0.00 0.00 0.00 41 1008.7
20260507010044 10 56 1.6 6.4 0.00 0.00 0.00 40 1008.8
20260507004544 10 360 8.0 17.7 0.00 0.00 0.00 37 1008.9
20260507003051 10 304 9.7 20.9 0.00 0.00 0.00 38 1009.0
20260507001616 10 76 3.2 9.7 0.00 0.00 0.00 39 1009.0
20260507000002 9 6 0.0 11.3 0.00 0.00 0.00 40 1009.2
20260506234515 10 358 11.3 17.7 0.00 0.00 0.00 39 1009.3
20260506233019 9 318 9.7 20.9 0.00 0.00 0.00 40 1009.6
20260506231530 9 340 9.7 29.0 0.00 0.00 0.00 39 1009.7
20260506230050 10 330 11.3 20.9 0.00 0.00 0.00 39 1009.7
20260506224537 9 324 11.3 19.3 0.00 0.00 0.00 40 1009.9
20260506223050 9 299 19.3 27.4 0.00 0.00 0.00 39 1010.0
20260506221502 9 325 12.9 27.4 0.00 0.00 0.00 39 1010.0
20260506220015 9 17 16.1 29.0 0.00 0.00 0.00 38 1010.2
20260506214527 10 322 12.9 25.7 0.00 0.00 0.00 37 1010.4
20260506213034 10 273 9.7 32.2 0.00 0.00 0.00 36 1010.5
20260506211539 10 309 11.3 24.1 0.00 0.00 0.00 38 1010.7
20260506210052 9 311 14.5 32.2 0.00 0.00 0.00 39 1010.9
20260506204547 9 360 8.0 14.5 0.00 0.00 0.00 40 1011.0
20260506203008 9 310 6.4 17.7 0.00 0.00 0.00 40 1011.3
20260506201521 9 352 6.4 19.3 0.00 0.00 0.00 41 1011.5
20260506200018 8 346 3.2 19.3 0.00 0.00 0.00 44 1011.7
20260506194525 7 358 6.4 17.7 0.00 0.00 0.00 45 1012.0
20260506193033 7 351 12.9 20.9 0.00 0.00 0.00 43 1012.1
20260506191518 7 339 8.0 22.5 0.00 0.00 0.00 44 1012.2
20260506190033 7 2 3.2 22.5 0.00 0.00 0.00 47 1012.5
20260506184543 7 331 6.4 27.4 0.00 0.00 0.00 47 1012.6
20260506183047 6 2 3.2 24.1 0.00 0.00 0.00 48 1012.8
20260506181604 6 328 9.7 24.1 0.00 0.00 0.00 48 1013.2
20260506180011 6 5 8.0 20.9 0.00 0.00 0.00 49 1013.2
20260506174514 6 330 9.7 24.1 0.00 0.00 0.00 49 1013.6
20260506173018 6 291 8.0 20.9 0.00 0.00 0.00 50 1013.8
20260506171522 6 285 9.7 20.9 0.00 0.00 0.00 51 1013.9
20260506170038 5 3 8.0 19.3 0.00 0.00 0.00 52 1014.1
20260506164553 5 325 9.7 22.5 0.00 0.00 0.00 53 1014.3
20260506163059 5 292 9.7 20.9 0.00 0.00 0.00 53 1014.4
20260506161603 4 343 12.9 20.9 0.00 0.00 0.00 55 1014.5